Wetbulb
67.82 67.35 66.99 67.13 67.25 67.09 66.79 67.26 68.89 70.75 72.35 72.05 71.61 71.75 71.77 71.06 71.13 71.23 72.21 72.25 71.45 71.47
67.17 67.84 67.19 67.10 67.59 67.75 68.44 68.47 69.37 70.42 71.44 72.51 72.02 71.87 72.00 70.96 71.22 71.88 71.99 71.90 72.22 71.94
67.21 67.64 67.87 67.91 67.81 68.19 68.88 69.45 70.08 70.41 71.15 72.16 72.65 72.53 72.00 71.90 71.77 71.50 71.35 71.09 71.17 71.35
67.99 67.33 67.11 67.87 68.83 69.37 70.26 70.59 69.99 70.32 71.00 71.51 71.91 72.26 71.48 71.76 72.05 71.79 71.91 71.90 71.68 71.31
69.09 68.75 67.56 67.83 68.62 69.95 70.29 71.38 71.09 70.92 71.00 71.60 72.06 72.40 71.40 71.54 72.10 71.62 71.13 71.52 71.19 71.49
68.97 69.33 69.14 68.93 69.51 70.10 70.14 71.02 71.38 70.50 70.46 70.91 71.20 70.70 70.31 70.69 70.42 70.35 70.99 71.30 71.16 71.50
68.53 68.94 69.80 70.39 70.05 70.46 71.27 71.14 71.27 70.94 70.62 70.38 70.22 69.92 70.21 69.85 69.10 69.21 69.33 69.87 70.71 70.83
69.05 69.51 69.65 69.82 70.44 70.19 70.42 71.25 71.67 71.51 70.99 70.78 70.37 69.87 69.45 69.10 68.59 68.26 68.73 70.09 71.27 71.50
68.46 68.92 69.05 69.10 69.18 70.21 70.39 70.60 70.88 71.09 71.04 70.72 70.80 67.70 66.98 69.23 69.20 69.24 69.71 69.91 71.02 71.44
69.19 68.75 69.34 69.38 69.54 69.47 69.60 70.24 70.03 70.43 71.07 70.83 71.51 66.16 65.58 67.71 69.26 69.73 70.51 71.50 71.89 71.81
69.75 69.29 70.22 70.17 69.89 70.31 70.73 70.66 70.91 71.17 71.66 71.89 72.07 65.36 64.55 67.12 69.76 69.98 71.39 70.43 71.10 71.54
69.93 69.36 69.90 70.04 70.32 70.84 70.77 70.57 71.10 71.83 71.86 71.79 72.26 62.60 62.81 65.12 68.68 70.05 70.33 70.50 70.06 68.70
71.00 70.32 70.29 70.56 70.71 71.05 71.07 70.82 70.77 70.58 71.40 68.58 71.65 60.61 60.27 63.87 69.96 68.99 68.40 67.59 64.99 60.62
71.15 71.19 71.40 71.31 71.35 71.13 71.22 71.24 70.66 70.68 70.85 71.09 69.84 64.22 58.43 60.09 69.35 69.08 67.12 65.90 64.35 60.72
MSLP
1014.63 1015.00 1015.50 1015.91 1016.18 1016.58 1016.88 1017.08 1017.21 1017.55 1017.74 1017.99 1018.32 1018.49 1018.69 1019.03 1019.30 1019.50 1019.65 1019.77 1019.89 1019.83
1014.14 1014.57 1014.93 1015.49 1015.76 1016.18 1016.39 1016.63 1016.90 1017.04 1017.40 1017.61 1017.94 1018.19 1018.37 1018.79 1019.02 1019.20 1019.28 1019.41 1019.54 1019.66
1013.50 1014.11 1014.48 1015.02 1015.44 1015.80 1016.08 1016.34 1016.61 1016.79 1016.95 1017.17 1017.31 1017.61 1018.15 1018.42 1018.55 1018.81 1018.95 1019.11 1019.21 1019.31
1012.99 1013.60 1014.04 1014.45 1014.87 1015.27 1015.56 1015.86 1016.20 1016.43 1016.57 1016.76 1017.00 1017.28 1017.72 1018.07 1018.23 1018.48 1018.65 1018.74 1018.84 1018.92
1012.08 1012.86 1013.51 1013.91 1014.25 1014.63 1015.01 1015.30 1015.64 1016.03 1016.30 1016.40 1016.62 1016.96 1017.37 1017.64 1017.76 1017.97 1018.23 1018.23 1018.47 1018.39
1011.34 1011.92 1012.59 1013.20 1013.67 1014.12 1014.48 1014.83 1015.16 1015.48 1015.76 1015.89 1016.16 1016.53 1016.99 1017.23 1017.33 1017.48 1017.62 1017.76 1017.93 1017.94
1010.14 1010.79 1011.61 1012.40 1012.99 1013.49 1013.84 1014.29 1014.61 1014.89 1015.20 1015.46 1015.74 1016.04 1016.33 1016.64 1016.94 1017.01 1017.07 1017.13 1017.23 1017.32
1010.04 1010.68 1011.21 1011.67 1012.23 1012.84 1013.34 1013.68 1014.01 1014.34 1014.63 1014.94 1015.27 1015.47 1015.86 1016.13 1016.33 1016.59 1016.57 1016.57 1016.51 1016.57
1009.57 1009.85 1010.49 1011.27 1011.39 1012.01 1012.50 1012.92 1013.32 1013.60 1013.83 1014.20 1014.46 1014.77 1015.10 1015.51 1015.94 1016.14 1016.10 1015.83 1015.75 1015.75
1008.54 1009.18 1009.77 1010.12 1010.91 1011.10 1011.41 1011.96 1012.28 1012.58 1013.00 1013.27 1013.46 1013.80 1014.32 1015.30 1015.52 1015.72 1015.66 1015.29 1015.15 1015.18
1007.38 1008.57 1009.50 1009.21 1010.04 1010.48 1010.80 1011.04 1011.42 1011.88 1012.17 1012.43 1012.68 1013.14 1013.84 1014.03 1014.58 1014.74 1015.13 1014.73 1014.59 1014.63
1006.57 1006.38 1007.79 1008.84 1009.40 1009.87 1010.47 1010.74 1010.96 1011.19 1011.47 1011.79 1012.11 1012.35 1012.88 1013.68 1014.08 1014.20 1014.11 1014.14 1014.35 1014.38
1005.57 1006.62 1007.09 1007.88 1008.59 1008.95 1009.50 1009.78 1010.15 1010.53 1010.76 1011.10 1011.42 1011.71 1012.06 1012.56 1012.93 1013.30 1013.61 1014.07 1014.31 1014.32
1005.83 1006.38 1006.60 1007.25 1007.98 1008.38 1008.92 1009.45 1009.67 1009.92 1010.11 1010.49 1011.11 1011.89 1012.04 1012.18 1012.46 1012.74 1013.25 1013.79 1014.35 1014.77
Wind_Speed
9 7 6 7 5 5 5 5 5 6 6 6 5 5 5 3 3 4 4 5 5 3
10 9 8 7 7 5 5 5 5 7 7 7 7 7 6 5 5 4 4 5 5 4
11 10 7 7 8 8 6 5 5 6 7 7 7 7 6 4 5 5 5 5 5 5
10 10 8 9 8 9 7 6 6 6 6 8 8 6 6 7 5 6 5 5 5 6
12 11 11 11 9 8 9 6 7 6 7 7 7 6 8 9 8 8 7 7 6 7
12 13 13 11 9 9 9 7 5 5 7 7 7 6 7 7 7 7 7 7 7 8
16 15 13 11 10 10 9 8 8 7 7 7 7 7 7 7 7 7 8 8 8 10
10 10 11 12 12 11 10 10 9 8 7 7 7 7 8 8 8 9 10 9 9 9
11 11 13 12 12 12 12 12 11 11 11 10 8 10 14 11 7 8 9 9 8 9
11 9 10 12 11 13 14 11 13 12 11 12 12 15 12 10 7 9 10 10 9 8
15 17 13 11 13 11 10 13 12 11 11 10 9 12 14 17 11 11 12 7 7 8
16 8 11 11 12 10 8 7 9 8 10 10 8 13 14 12 10 10 7 5 3 4
11 12 13 14 13 10 8 9 7 8 8 9 7 10 11 10 5 5 4 3 3 6
12 14 14 11 9 10 9 7 9 8 6 7 7 6 10 10 5 4 5 5 3 2
Wind_Direction
184 187 187 192 184 195 191 198 184 192 200 208 203 204 205 219 226 232 234 233 221 238
185 191 187 184 187 197 200 207 196 197 199 207 203 207 199 212 221 213 229 236 230 230
187 194 185 176 189 193 204 204 202 203 200 209 209 198 196 222 225 215 227 239 232 233
181 189 182 192 196 200 196 195 210 210 209 209 217 203 193 220 225 224 237 230 220 239
175 177 187 199 200 195 204 190 207 202 206 209 213 192 207 218 211 215 223 232 229 238
184 181 191 199 195 196 202 205 199 194 209 212 205 199 216 220 216 217 220 225 228 245
189 187 189 189 187 195 196 196 201 201 207 214 208 205 212 217 232 232 232 226 227 239
193 187 185 185 186 189 193 204 206 199 208 214 218 225 214 215 218 232 239 236 234 234
180 184 186 197 182 185 196 201 195 207 208 211 223 209 211 210 222 234 233 237 237 235
191 190 195 189 193 196 199 197 206 208 204 213 219 206 204 186 230 246 244 231 233 239
179 187 197 183 202 210 200 195 200 207 207 212 220 188 190 197 211 229 241 227 226 237
208 185 174 188 201 201 191 191 203 206 202 206 223 195 193 177 200 219 231 227 218 260
189 193 188 196 199 196 195 210 194 205 198 206 214 182 178 172 169 181 170 150 123 40
182 193 198 193 187 191 188 190 197 205 189 178 173 171 165 172 161 170 157 155 151 117